Погода в Евсуге

Украина / Луганская область     49°12′05″N   39°18′43″E
темп.,
°C
ветер,
м/с
пор.,
м/с
влажн.,
%
обл.,
%
осадки,
мм/ч
давл.,
гПа
погр.,
м
5 августа, чт
чт500:00+20всв335379 0.0 101737
03:00+19всв2255100 0.0 101724
06:00+19всв2259100 0.0 101840
09:00+25в33413 0.0 1017617
12:00+29в3328100 0.0 10162315
15:00+31всв2224100 0.0 10152744
18:00+30св3327100 0.0 1013468
21:00+24всв4936100 0.0 1014154
6 августа, пт
пт600:00+22в4123830 0.0 1013218
03:00+22вюв511409 0.0 1012212
06:00+22вюв4124039 0.0 1012382
09:00+24юв51241100 0.1 1012438
12:00+33ююв8926100 0.0 10112112
15:00+35ююв682392 0.0 10093181
18:00+34юв682461 0.0 10082427
21:00+28вюв61429100 0.0 1008334
7 августа, сб
сб700:00+27вюв71626100 0.0 1008433
03:00+26вюв7172584 0.0 1008465
06:00+24вюв616295 0.0 1008469
09:00+31юв8112491 0.0 1008833
12:00+35юв91120100 0.0 10081969
15:00+34юв81020100 0.0 10071519
18:00+34юв4820100 0.0 1007589
21:00+29вюв3625100 0.0 100874
8 августа, вс
вс800:00+30в61024100 0.0 1008254
03:00+29в5925100 0.0 1008215
06:00+27св4829100 0.0 1008159
09:00+28с1225100 0.0 1010224
12:00+29св3527100 0.0 1010411
15:00+30всв4429100 0.0 10101915
18:00+27ссв7941100 0.0 1011407
21:00+25ссв5103921 0.0 1011271
9 августа, пн
пн900:00+25с41040100 0.0 1012351
03:00+24ссз51044100 0.0 1011308
06:00+24с5124375 0.0 1011369
09:00+27с5938100 0.0 1012417
12:00+32ссв462958 0.0 10121351
15:00+34с552426 0.0 10113067
18:00+33сз652857 0.0 10112211
21:00+26сз47450 0.0 1012117